Weather History for Oxford, MS

Change the Weather History Date:

Wednesday, October 9, 2013

  Actual Average Record
Temperature  
Mean Temperature 62 °F -  
Max Temperature 71 °F 74 °F 89 °F (1941)
Min Temperature 53 °F 48 °F 32 °F (1987)
Degree Days  
Heating Degree Days 3    
Growing Degree Days 12 (Base 50)    
Moisture  
Dew Point 58 °F    
Average Humidity 89    
Maximum Humidity 100    
Minimum Humidity 73    
Precipitation  
Precipitation 0.00 in - - ()
Sea Level Pressure  
Sea Level Pressure 30.12 in    
Wind  
Wind Speed 1 mph (SE)    
Max Wind Speed 6 mph    
Max Gust Speed -    
Visibility 9 miles    
Events      
Averages and records for this station are not official NWS values.
T = Trace of Precipitation, MM = Missing Value Source: NWS Daily Summary

Daily Weather History Graph

Daily Weather History Graph

Search for Another Location

Airport:

Trip Planner

Search our weather history database for the weather conditions in past years. The results will help you decide how hot, cold, wet, or windy it might be!

Date:

Astronomy

Oct. 09, 2013 Rise Set
Actual Time 6:58 AM CDT 6:31 PM CDT
Civil Twilight 6:33 AM CDT 6:56 PM CDT
Nautical Twilight 6:04 AM CDT 7:25 PM CDT
Astronomical Twilight 5:35 AM CDT 7:54 PM CDT
Moon 11:44 AM CDT (10/9) 10:15 PM CDT (10/9)
Length of Visible Light 12h 22m
Length of Day
11h 32m
Waxing Crescent, 25% of the Moon is Illuminated
Oct 9
Waxing Crescent
Oct 11
First Quarter
Oct 18
Full
Oct 26
Last Quarter
Nov 3
New

Hourly Weather History & Observations

Time (CDT) Temp. Dew Point Humidity Pressure Visibility Wind Dir Wind Speed Gust Speed Precip Events Conditions
12:15 AM 55.4 °F 53.6 °F 94% 30.08 in 10.0 mi Calm Calm - N/A   Clear
12:35 AM 55.4 °F 53.6 °F 94% 30.08 in 10.0 mi Calm Calm - N/A   Clear
12:55 AM 53.6 °F 53.6 °F 100% 30.08 in 10.0 mi Calm Calm - N/A   Clear
1:15 AM 53.6 °F 53.6 °F 100% 30.08 in 10.0 mi Calm Calm - N/A   Clear
1:35 AM 53.6 °F 51.8 °F 94% 30.08 in 10.0 mi Calm Calm - N/A   Clear
1:55 AM 53.6 °F 51.8 °F 94% 30.08 in 10.0 mi Calm Calm - N/A   Clear
2:15 AM 53.6 °F 51.8 °F 94% 30.08 in 9.0 mi Calm Calm - N/A   Partly Cloudy
2:35 AM 53.6 °F 51.8 °F 94% 30.07 in 10.0 mi Calm Calm - N/A   Partly Cloudy
2:55 AM 53.6 °F 51.8 °F 94% 30.07 in 10.0 mi Calm Calm - N/A   Partly Cloudy
3:15 AM 53.6 °F 50.0 °F 88% 30.07 in 10.0 mi Calm Calm - N/A   Scattered Clouds
3:35 AM 53.6 °F 51.8 °F 94% 30.07 in 10.0 mi Calm Calm - N/A   Mostly Cloudy
3:55 AM 53.6 °F 51.8 °F 94% 30.07 in 10.0 mi Calm Calm - N/A   Mostly Cloudy
4:15 AM 53.6 °F 51.8 °F 94% 30.07 in 10.0 mi Calm Calm - N/A   Mostly Cloudy
4:35 AM 53.6 °F 51.8 °F 94% 30.07 in 10.0 mi Calm Calm - N/A   Partly Cloudy
4:55 AM 53.6 °F 51.8 °F 94% 30.08 in 10.0 mi Calm Calm - N/A   Clear
5:15 AM 55.4 °F 53.6 °F 94% 30.08 in 10.0 mi Calm Calm - N/A   Clear
5:35 AM 57.2 °F 55.4 °F 94% 30.08 in 10.0 mi SE 3.5 mph - N/A   Clear
5:55 AM 57.2 °F 55.4 °F 94% 30.09 in 10.0 mi SE 3.5 mph - N/A   Clear
6:15 AM 57.2 °F 55.4 °F 94% 30.10 in 10.0 mi SE 3.5 mph - N/A   Clear
6:35 AM 57.2 °F 57.2 °F 100% 30.10 in 10.0 mi SE 3.5 mph - N/A   Scattered Clouds
6:55 AM 59.0 °F 57.2 °F 94% 30.11 in 10.0 mi SE 3.5 mph - N/A   Mostly Cloudy
7:15 AM 59.0 °F 57.2 °F 94% 30.11 in 10.0 mi SE 3.5 mph - N/A   Mostly Cloudy
7:35 AM 59.0 °F 57.2 °F 94% 30.12 in 10.0 mi SE 4.6 mph - N/A   Mostly Cloudy
7:55 AM 59.0 °F 57.2 °F 94% 30.13 in 10.0 mi SE 3.5 mph - N/A   Mostly Cloudy
8:15 AM 59.0 °F 57.2 °F 94% 30.14 in 10.0 mi SE 3.5 mph - N/A   Partly Cloudy
8:35 AM 60.8 °F 59.0 °F 94% 30.14 in 10.0 mi SSE 4.6 mph - N/A   Scattered Clouds
8:55 AM 62.6 °F 59.0 °F 88% 30.15 in 10.0 mi SE 5.8 mph - N/A   Scattered Clouds
9:15 AM 62.6 °F 59.0 °F 88% 30.15 in 10.0 mi SSE 4.6 mph - N/A   Partly Cloudy
9:35 AM 64.4 °F 59.0 °F 83% 30.16 in 10.0 mi SSE 4.6 mph - N/A   Clear
9:55 AM 64.4 °F 59.0 °F 83% 30.17 in 10.0 mi SSE 4.6 mph - N/A   Scattered Clouds
10:15 AM 64.4 °F 59.0 °F 83% 30.17 in 10.0 mi SSE 4.6 mph - N/A   Mostly Cloudy
10:35 AM 66.2 °F 59.0 °F 78% 30.17 in 10.0 mi South 5.8 mph - N/A   Overcast
10:55 AM 66.2 °F 60.8 °F 83% 30.18 in 9.0 mi SSE 4.6 mph - N/A   Overcast
11:15 AM 66.2 °F 60.8 °F 83% 30.18 in 10.0 mi Calm Calm - N/A   Overcast
11:35 AM 66.2 °F 60.8 °F 83% 30.18 in 10.0 mi Calm Calm - N/A   Overcast
11:55 AM 66.2 °F 60.8 °F 83% 30.18 in 10.0 mi Calm Calm - N/A   Overcast
12:15 PM 68.0 °F 60.8 °F 78% 30.17 in 10.0 mi Calm Calm - N/A   Overcast
12:35 PM 68.0 °F 62.6 °F 83% 30.17 in 9.0 mi ESE 3.5 mph - N/A   Overcast
12:55 PM 68.0 °F 62.6 °F 83% 30.16 in 10.0 mi Calm Calm - N/A   Overcast
1:15 PM 68.0 °F 62.6 °F 83% 30.15 in 9.0 mi Calm Calm - N/A   Overcast
1:35 PM 68.0 °F 62.6 °F 83% 30.14 in 10.0 mi SE 4.6 mph - N/A   Overcast
1:55 PM 68.0 °F 62.6 °F 83% 30.14 in 10.0 mi Calm Calm - N/A   Overcast
2:15 PM 68.0 °F 62.6 °F 83% 30.14 in 10.0 mi Calm Calm - N/A   Overcast
2:35 PM 68.0 °F 62.6 °F 83% 30.13 in 10.0 mi Calm Calm - N/A   Overcast
2:55 PM 68.0 °F 62.6 °F 83% 30.13 in 10.0 mi East 4.6 mph - N/A   Overcast
3:15 PM 69.8 °F 62.6 °F 78% 30.12 in 10.0 mi Calm Calm - N/A   Overcast
3:55 PM 69.8 °F 62.6 °F 78% 30.12 in 10.0 mi Calm Calm - N/A   Overcast
4:15 PM 69.8 °F 62.6 °F 78% 30.12 in 10.0 mi Calm Calm - N/A   Overcast
4:35 PM 69.8 °F 62.6 °F 78% 30.12 in 10.0 mi Calm Calm - N/A   Unknown
4:55 PM 71.6 °F 62.6 °F 73% 30.12 in 10.0 mi Calm Calm - N/A   Overcast
5:15 PM 68.0 °F 62.6 °F 83% 30.11 in 9.0 mi Calm Calm - N/A   Mostly Cloudy
5:35 PM 68.0 °F 62.6 °F 83% 30.11 in 9.0 mi Calm Calm - N/A   Mostly Cloudy
5:55 PM 68.0 °F 62.6 °F 83% 30.12 in 10.0 mi ESE 4.6 mph - N/A   Overcast
6:15 PM 68.0 °F 62.6 °F 83% 30.11 in 10.0 mi Calm Calm - N/A   Overcast
6:55 PM 66.2 °F 62.6 °F 88% 30.11 in 10.0 mi Calm Calm - N/A   Overcast
7:15 PM 66.2 °F 62.6 °F 88% 30.12 in 10.0 mi Calm Calm - N/A   Overcast
7:35 PM 66.2 °F 62.6 °F 88% 30.11 in 10.0 mi ENE 3.5 mph - N/A   Overcast
7:55 PM 66.2 °F 62.6 °F 88% 30.12 in 10.0 mi Calm Calm - N/A   Overcast
8:15 PM 66.2 °F 62.6 °F 88% 30.12 in 10.0 mi Calm Calm - N/A   Overcast
8:35 PM 64.4 °F 62.6 °F 94% 30.12 in 8.0 mi Calm Calm - N/A   Scattered Clouds
8:55 PM 62.6 °F 62.6 °F 100% 30.13 in 7.0 mi Calm Calm - N/A   Clear
9:15 PM 62.6 °F 59.0 °F 88% 30.12 in 5.0 mi Calm Calm - N/A   Clear
9:35 PM 62.6 °F 60.8 °F 94% 30.13 in 5.0 mi Calm Calm - N/A   Clear
9:55 PM 60.8 °F 59.0 °F 94% 30.13 in 3.0 mi Calm Calm - N/A   Clear
10:15 PM 59.0 °F 59.0 °F 100% 30.13 in 5.0 mi Calm Calm - N/A   Clear
10:35 PM 59.0 °F 59.0 °F 100% 30.13 in 3.0 mi Calm Calm - N/A   Clear
10:55 PM 59.0 °F 57.2 °F 94% 30.13 in 7.0 mi Calm Calm - N/A   Clear
11:15 PM 59.0 °F 57.2 °F 94% 30.13 in 5.0 mi Calm Calm - N/A   Clear
11:55 PM 59.0 °F 57.2 °F 94% 30.13 in 6.0 mi Calm Calm - N/A   Mostly Cloudy